Weather in Saudakent

Kazakhstan     43°44′14″N   69°54′47″E
temp.,
°C
wind,
m/s
gust,
m/s
humid.,
%
clouds,
%
prec.,
mm/h
press.,
hPa
HPBL,
m
25 june, sat
sat2500:00+29se33290 0.0 100727
03:00+28ese23320 0.0 100616
06:00+26ese23370 0.0 100715
09:00+31ese45320 0.0 1007505
12:00+36e67190 0.0 10062514
15:00+38ene65160 0.0 10053175
18:00+38ene65150 0.0 10043281
21:00+34ene45190 0.0 100465
26 june, sun
sun2600:00+31ene22240 0.0 100311
03:00+29ese11280 0.0 100311
06:00+29se33270 0.0 100319
09:00+34ese23210 0.0 1004345
12:00+38ne33150 0.0 10033032
15:00+40nne22123 0.0 10014083
18:00+41n43110 0.0 10004215
21:00+37nw22133 0.0 100013
27 june, mon
mon2700:00+33nne22201 0.0 100117
03:00+31nnw23200 0.0 100217
06:00+29wnw22231 0.0 100311
09:00+34wsw01165 0.0 1003371
12:00+38nw22130 0.0 10031700
15:00+41nw78117 0.0 10013948
18:00+40nw109116 0.0 10013101
21:00+35nw913180 0.0 1003598
28 june, tue
tue2800:00+32nnw59230 0.0 1005272
03:00+28nw58200 0.0 1006206
06:00+25nw34180 0.0 100759
09:00+28nw33140 0.0 1007604
12:00+32nw33130 0.0 10061374
15:00+35nw45110 0.0 10051947
18:00+35nnw55100 0.0 10041767
21:00+31nnw4490 0.0 100443
29 june, wed
wed2900:00+28nnw33130 0.0 100523
03:00+25s12170 0.0 100411
06:00+24ese00190 0.0 100411
09:00+31se221150 0.0 1004371
12:00+35n5495 0.0 10041364
15:00+38ne4397 0.0 10021775
18:00+39ene44100 0.0 10002191
21:00+35e58135 0.0 998117